CW8420 Weather Reports


Display with metric or nautical units.
time (UTC)temp
F
wind
direction
speed
MPH
gust
MPH
rain 1hr
in
rain 24hr
in
rain mn
in
humidity
%
barometer
mb
20200407225522 77 187 4.0 13.0 0.00 0.00 0.00 30 1014.6
20200407225019 77 173 5.0 15.0 0.00 0.00 0.00 30 1014.6
20200407224523 77 189 7.0 15.0 0.00 0.00 0.00 29 1014.7
20200407224033 77 206 10.0 15.0 0.00 0.00 0.00 30 1014.7
20200407223522 77 162 8.0 14.0 0.00 0.00 0.00 27 1014.8
20200407223058 76 187 9.0 17.0 0.00 0.00 0.00 31 1014.9
20200407222524 77 164 11.0 17.0 0.00 0.00 0.00 30 1014.9
20200407222020 77 200 4.0 16.0 0.00 0.00 0.00 30 1014.9
20200407221501 77 231 6.0 17.0 0.00 0.00 0.00 31 1014.9
20200407221014 77 202 6.0 17.0 0.00 0.00 0.00 31 1015.0
20200407220517 76 166 6.0 14.0 0.00 0.00 0.00 31 1015.1
20200407220017 76 174 5.0 14.0 0.00 0.00 0.00 32 1015.1
20200407215523 76 210 3.0 15.0 0.00 0.00 0.00 31 1015.2
20200407215005 77 165 2.0 16.0 0.00 0.00 0.00 29 1015.0
20200407214458 77 224 6.0 16.0 0.00 0.00 0.00 30 1015.0
20200407213952 77 215 9.0 12.0 0.00 0.00 0.00 30 1015.2
20200407213500 77 174 6.0 17.0 0.00 0.00 0.00 30 1015.2
20200407212946 77 194 7.0 17.0 0.00 0.00 0.00 32 1015.3
20200407212452 77 183 2.0 11.0 0.00 0.00 0.00 32 1015.2
20200407211957 77 203 1.0 15.0 0.00 0.00 0.00 31 1015.3
20200407211443 77 167 8.0 14.0 0.00 0.00 0.00 31 1015.5
20200407210952 77 182 1.0 10.0 0.00 0.00 0.00 29 1015.5
20200407210456 77 169 2.0 11.0 0.00 0.00 0.00 30 1015.5
20200407210001 77 180 5.0 14.0 0.00 0.00 0.00 30 1015.7
20200407205445 77 247 9.0 15.0 0.00 0.00 0.00 30 1015.8
20200407204951 77 210 5.0 16.0 0.00 0.00 0.00 31 1015.9
20200407204457 77 211 10.0 16.0 0.00 0.00 0.00 29 1016.0
20200407203943 77 241 8.0 15.0 0.00 0.00 0.00 28 1016.1
20200407203450 77 206 2.0 14.0 0.00 0.00 0.00 30 1016.1
20200407202951 77 189 9.0 15.0 0.00 0.00 0.00 29 1016.1
20200407202457 77 221 7.0 14.0 0.00 0.00 0.00 31 1016.2
20200407202002 76 193 2.0 18.0 0.00 0.00 0.00 30 1016.3
20200407201446 77 174 6.0 18.0 0.00 0.00 0.00 31 1016.4
20200407200954 77 173 8.0 16.0 0.00 0.00 0.00 30 1016.5
20200407200500 76 255 9.0 15.0 0.00 0.00 0.00 31 1016.5
20200407195946 76 193 6.0 16.0 0.00 0.00 0.00 31 1016.5
20200407195450 76 220 6.0 19.0 0.00 0.00 0.00 33 1016.6
20200407194954 76 204 9.0 19.0 0.00 0.00 0.00 31 1016.7
20200407194459 76 194 6.0 18.0 0.00 0.00 0.00 31 1016.7
20200407193945 75 198 5.0 19.0 0.00 0.00 0.00 32 1016.6
20200407193454 75 227 7.0 17.0 0.00 0.00 0.00 32 1016.8
20200407193000 75 245 6.0 19.0 0.00 0.00 0.00 33 1016.9
20200407192446 75 233 7.0 17.0 0.00 0.00 0.00 32 1016.9
20200407191951 75 223 4.0 16.0 0.00 0.00 0.00 34 1017.0
20200407191454 75 216 7.0 15.0 0.00 0.00 0.00 34 1017.1
20200407190957 74 193 4.0 14.0 0.00 0.00 0.00 35 1017.1
20200407190443 74 235 1.0 14.0 0.00 0.00 0.00 35 1017.2
20200407185949 74 204 3.0 15.0 0.00 0.00 0.00 34 1017.3
20200407185456 73 217 2.0 11.0 0.00 0.00 0.00 37 1017.3
20200407185001 73 156 2.0 10.0 0.00 0.00 0.00 37 1017.4
20200407184532 72 192 3.0 14.0 0.00 0.00 0.00 37 1017.5
20200407183953 73 204 2.0 16.0 0.00 0.00 0.00 37 1017.6
20200407183453 72 201 4.0 16.0 0.00 0.00 0.00 38 1017.7
20200407182958 72 186 1.0 16.0 0.00 0.00 0.00 40 1017.9
20200407182444 71 160 5.0 15.0 0.00 0.00 0.00 39 1017.9
20200407181950 71 183 6.0 15.0 0.00 0.00 0.00 40 1018.0
20200407181457 71 217 5.0 12.0 0.00 0.00 0.00 40 1018.1
20200407180943 71 173 4.0 19.0 0.00 0.00 0.00 39 1018.1
20200407180447 71 210 8.0 19.0 0.00 0.00 0.00 38 1018.2
20200407175950 70 193 8.0 14.0 0.00 0.00 0.00 40 1018.2
20200407175456 70 227 3.0 17.0 0.00 0.00 0.00 40 1018.2
20200407175000 70 210 7.0 17.0 0.00 0.00 0.00 39 1018.2
20200407174448 70 208 9.0 14.0 0.00 0.00 0.00 37 1018.2
20200407173953 70 192 7.0 11.0 0.00 0.00 0.00 39 1018.2
20200407173449 70 223 4.0 13.0 0.00 0.00 0.00 40 1018.2
20200407173132 69 196 3.0 12.0 0.00 0.00 0.00 41 1012.8
20200407172953 69 196 4.0 12.0 0.00 0.00 0.00 41 1018.2
20200407172453 69 190 4.0 13.0 0.00 0.00 0.00 41 1018.3
20200407171958 69 162 6.0 14.0 0.00 0.00 0.00 42 1018.4
20200407171458 68 218 9.0 14.0 0.00 0.00 0.00 42 1018.4
20200407170956 68 171 3.0 11.0 0.00 0.00 0.00 44 1018.5
20200407170455 67 182 2.0 12.0 0.00 0.00 0.00 44 1018.6
20200407170059 66 144 4.0 13.0 0.00 0.00 0.00 45 1013.2
20200407165726 66 181 5.0 13.0 0.00 0.00 0.00 44 1018.7
20200407164958 66 162 4.0 15.0 0.00 0.00 0.00 46 1018.7
20200407164502 65 195 6.0 15.0 0.00 0.00 0.00 46 1018.6
20200407163946 65 197 3.0 14.0 0.00 0.00 0.00 48 1018.6
20200407163452 64 129 5.0 14.0 0.00 0.00 0.00 48 1018.6
20200407162957 63 191 5.0 14.0 0.00 0.00 0.00 50 1018.6
20200407162458 62 158 3.0 10.0 0.00 0.00 0.00 49 1018.6
20200407161944 61 222 2.0 11.0 0.00 0.00 0.00 49 1018.5
20200407161555 61 187 0.0 10.0 0.00 0.00 0.00 48 1013.3
20200407161450 61 181 3.0 10.0 0.00 0.00 0.00 48 1018.5
20200407160953 61 196 3.0 9.0 0.00 0.00 0.00 49 1018.6
20200407160458 60 204 4.0 9.0 0.00 0.00 0.00 51 1018.6
20200407160152 60 193 1.0 12.0 0.00 0.00 0.00 50 1013.3
20200407155943 60 183 1.0 12.0 0.00 0.00 0.00 49 1018.5
20200407155449 60 182 3.0 12.0 0.00 0.00 0.00 49 1018.5
20200407154952 60 199 1.0 10.0 0.00 0.00 0.00 49 1018.5
20200407154458 60 212 2.0 6.0 0.00 0.00 0.00 48 1018.4
20200407153944 60 201 1.0 5.0 0.00 0.00 0.00 48 1018.4
20200407153448 59 202 1.0 4.0 0.00 0.00 0.00 48 1018.4
20200407153223 59 135 0.0 3.0 0.00 0.00 0.00 47 1013.2
20200407152954 59 159 0.0 3.0 0.00 0.00 0.00 47 1018.3
20200407152458 59 146 0.0 5.0 0.00 0.00 0.00 48 1018.3
20200407151944 58 174 1.0 5.0 0.00 0.00 0.00 48 1018.4
20200407151701 57 193 0.0 2.0 0.00 0.00 0.00 48 1013.2
20200407151449 57 180 0.0 1.0 0.00 0.00 0.00 49 1018.3
20200407150950 56 194 0.0 0.0 0.00 0.00 0.00 49 1018.3
20200407150454 56 37 0.0 0.0 0.00 0.00 0.00 50 1018.3
20200407150000 55 347 0.0 0.0 0.00 0.00 0.00 50 1018.2
20200407145445 55 347 0.0 0.0 0.00 0.00 0.00 51 1018.3
20200407144952 54 345 0.0 0.0 0.00 0.00 0.00 50 1018.2
20200407144500 54 344 0.0 0.0 0.00 0.00 0.00 51 1018.2
20200407143945 53 333 0.0 0.0 0.00 0.00 0.00 51 1018.2
20200407143445 53 332 0.0 0.0 0.00 0.00 0.00 51 1018.1
20200407143135 52 332 0.0 0.0 0.00 0.00 0.00 52 1013.0
20200407142953 53 332 0.0 0.0 0.00 0.00 0.00 52 1018.1
20200407142459 53 331 0.0 0.0 0.00 0.00 0.00 52 1018.0
20200407141948 52 313 0.0 0.0 0.00 0.00 0.00 52 1018.0
20200407141656 52 299 0.0 0.0 0.00 0.00 0.00 52 1012.9
20200407141455 52 299 0.0 3.0 0.00 0.00 0.00 53 1018.0
20200407141002 52 298 0.0 3.0 0.00 0.00 0.00 53 1017.9
20200407140448 51 306 0.0 8.0 0.00 0.00 0.00 54 1017.8
20200407140127 50 218 0.0 8.0 0.00 0.00 0.00 55 1012.7
20200407135955 50 218 1.0 8.0 0.00 0.00 0.00 56 1017.7
20200407135456 50 216 2.0 7.0 0.00 0.00 0.00 58 1017.6
20200407134943 48 216 3.0 5.0 0.00 0.00 0.00 60 1017.6
20200407134632 47 215 0.0 4.0 0.00 0.00 0.00 61 1012.5
20200407134449 47 214 0.0 5.0 0.00 0.00 0.00 62 1017.5
20200407133956 46 214 0.0 5.0 0.00 0.00 0.00 63 1017.5
20200407133443 46 210 1.0 5.0 0.00 0.00 0.00 65 1017.4
20200407133144 45 206 0.0 4.0 0.00 0.00 0.00 65 1012.2
20200407132946 45 206 1.0 4.0 0.00 0.00 0.00 65 1017.2
20200407132453 44 214 1.0 3.0 0.00 0.00 0.00 65 1017.2
20200407131955 44 214 0.0 3.0 0.00 0.00 0.00 63 1017.1
20200407131459 44 215 0.0 0.0 0.00 0.00 0.00 61 1017.0
20200407130946 44 215 0.0 0.0 0.00 0.00 0.00 61 1017.0
20200407130451 45 215 0.0 0.0 0.00 0.00 0.00 60 1017.0
20200407125958 45 215 0.0 0.0 0.00 0.00 0.00 60 1016.9
20200407125502 45 215 0.0 0.0 0.00 0.00 0.00 58 1016.7
20200407124948 45 214 0.0 0.0 0.00 0.00 0.00 57 1016.7
20200407124455 46 215 0.0 0.0 0.00 0.00 0.00 58 1016.7
20200407123956 46 214 0.0 0.0 0.00 0.00 0.00 58 1016.7
20200407123502 46 214 0.0 0.0 0.00 0.00 0.00 58 1016.7
20200407123205 46 215 0.0 0.0 0.00 0.00 0.00 58 1011.5
20200407122948 46 215 0.0 0.0 0.00 0.00 0.00 57 1016.7
20200407122451 47 215 0.0 0.0 0.00 0.00 0.00 57 1016.8
20200407121957 47 214 0.0 0.0 0.00 0.00 0.00 57 1016.7
20200407121641 46 215 0.0 0.0 0.00 0.00 0.00 57 1011.5
20200407121444 47 215 0.0 0.0 0.00 0.00 0.00 56 1016.7
20200407120950 47 214 0.0 0.0 0.00 0.00 0.00 56 1016.6
20200407120452 47 215 0.0 0.0 0.00 0.00 0.00 55 1016.7
20200407120012 48 215 0.0 0.0 0.00 0.00 0.00 55 1016.6
20200407115527 48 215 0.0 0.0 0.00 0.00 0.00 55 1016.6
20200407115018 48 215 0.0 0.0 0.00 0.00 0.00 54 1016.7
20200407114810 48 215 0.0 0.0 0.00 0.00 0.00 53 1016.6
20200407114022 48 215 0.0 1.0 0.00 0.00 0.00 53 1016.6
20200407113516 49 215 0.0 0.0 0.00 0.00 0.00 53 1016.6
20200407113009 49 215 0.0 3.0 0.00 0.00 0.00 53 1016.7
20200407112504 49 215 0.0 3.0 0.00 0.00 0.00 52 1016.7
20200407112001 49 214 0.0 2.0 0.00 0.00 0.00 52 1016.6
20200407111539 50 215 0.0 2.0 0.00 0.00 0.00 52 1016.5
20200407111020 50 215 0.0 0.0 0.00 0.00 0.00 51 1016.5
20200407110530 50 215 0.0 0.0 0.00 0.00 0.00 51 1016.4
20200407110031 50 214 0.0 4.0 0.00 0.00 0.00 51 1016.4
20200407105521 51 215 1.0 4.0 0.00 0.00 0.00 51 1016.6
20200407105033 51 216 0.0 5.0 0.00 0.00 0.00 50 1016.5
20200407104522 51 194 1.0 9.0 0.00 0.00 0.00 50 1016.6
20200407104031 51 193 3.0 9.0 0.00 0.00 0.00 50 1016.6
20200407103525 51 186 2.0 7.0 0.00 0.00 0.00 50 1016.5
20200407103024 51 212 2.0 7.0 0.00 0.00 0.00 49 1016.6
20200407102547 52 204 3.0 7.0 0.00 0.00 0.00 49 1016.6
20200407102031 52 217 3.0 6.0 0.00 0.00 0.00 49 1016.5
20200407101515 52 210 1.0 6.0 0.00 0.00 0.00 48 1016.5
20200407101034 52 226 4.0 7.0 0.00 0.00 0.00 48 1016.6
20200407100515 52 223 0.0 5.0 0.00 0.00 0.00 47 1016.5
20200407100031 52 160 1.0 8.0 0.00 0.00 0.00 47 1016.5
20200407095513 53 171 3.0 10.0 0.00 0.00 0.00 47 1016.5
20200407095025 52 159 1.0 10.0 0.00 0.00 0.00 47 1016.5
20200407094510 52 185 3.0 11.0 0.00 0.00 0.00 47 1016.5
20200407094022 52 182 5.0 11.0 0.00 0.00 0.00 47 1016.5
20200407093507 52 183 2.0 9.0 0.00 0.00 0.00 48 1016.5
20200407093018 52 142 1.0 7.0 0.00 0.00 0.00 48 1016.4
20200407092523 52 194 2.0 7.0 0.00 0.00 0.00 47 1016.6
20200407091026 52 179 0.0 6.0 0.00 0.00 0.00 46 1016.8
20200407090512 52 181 2.0 8.0 0.00 0.00 0.00 46 1016.9
20200407090033 53 177 3.0 8.0 0.00 0.00 0.00 46 1016.8
20200407085533 53 177 2.0 8.0 0.00 0.00 0.00 45 1016.9
20200407085018 53 196 4.0 11.0 0.00 0.00 0.00 45 1016.9
20200407084527 53 178 6.0 11.0 0.00 0.00 0.00 45 1016.8
20200407084017 53 183 5.0 10.0 0.00 0.00 0.00 45 1016.7
20200407083528 53 173 5.0 10.0 0.00 0.00 0.00 45 1016.7
20200407083032 53 181 4.0 9.0 0.00 0.00 0.00 44 1016.8
20200407082517 53 166 2.0 8.0 0.00 0.00 0.00 43 1016.7
20200407082008 53 194 2.0 10.0 0.00 0.00 0.00 43 1016.8
20200407081513 53 179 4.0 10.0 0.00 0.00 0.00 43 1016.9
20200407081014 53 205 6.0 10.0 0.00 0.00 0.00 43 1016.9
20200407080514 53 179 4.0 9.0 0.00 0.00 0.00 43 1016.9
20200407075959 54 173 5.0 9.0 0.00 0.00 0.00 43 1016.8
20200407075534 54 182 5.0 8.0 0.00 0.00 0.00 43 1016.8
20200407075053 54 187 3.0 8.0 0.00 0.00 0.00 42 1016.9
20200407074509 54 177 3.0 8.0 0.00 0.00 0.00 41 1016.9
20200407074017 54 173 4.0 8.0 0.00 0.00 0.00 41 1016.9
20200407073514 54 172 2.0 8.0 0.00 0.00 0.00 40 1017.0
20200407073021 55 184 5.0 10.0 0.00 0.00 0.00 40 1017.0
20200407072505 55 178 4.0 10.0 0.00 0.00 0.00 40 1017.0
20200407072021 55 177 5.0 8.0 0.00 0.00 0.00 40 1017.1
20200407071524 55 194 4.0 8.0 0.00 0.00 0.00 40 1017.2
20200407071022 55 156 1.0 8.0 0.00 0.00 0.00 39 1017.1
20200407070522 55 164 3.0 11.0 0.00 0.00 0.00 39 1017.1
20200407070008 55 146 4.0 11.0 0.00 0.00 0.00 39 1017.3
20200407065537 55 158 2.0 8.0 0.00 0.00 0.00 39 1017.2
20200407065015 55 152 3.0 8.0 0.00 0.00 0.00 39 1017.2
20200407064516 56 143 2.0 6.0 0.00 0.00 0.00 39 1017.2
20200407064020 56 172 0.0 7.0 0.00 0.00 0.00 38 1017.2
20200407063524 56 164 1.0 7.0 0.00 0.00 0.00 38 1017.1
20200407063018 56 185 1.0 7.0 0.00 0.00 0.00 37 1017.0
20200407062519 56 202 1.0 10.0 0.00 0.00 0.00 37 1017.0
20200407062025 56 187 3.0 8.0 0.00 0.00 0.00 37 1017.0
20200407061517 56 211 4.0 9.0 0.00 0.00 0.00 37 1016.9
20200407061012 57 192 4.0 9.0 0.00 0.00 0.00 36 1017.0
20200407060515 57 197 3.0 8.0 0.00 0.00 0.00 36 1016.8
20200407060017 57 198 2.0 8.0 0.00 0.00 0.00 35 1016.8
20200407055521 58 182 3.0 9.0 0.00 0.00 0.00 35 1016.9
20200407055021 58 221 3.0 11.0 0.00 0.00 0.00 34 1016.9
20200407054458 58 221 5.0 13.0 0.00 0.00 0.00 34 1016.8
20200407054005 58 208 6.0 13.0 0.00 0.00 0.00 34 1016.8
20200407053508 58 181 5.0 10.0 0.00 0.00 0.00 34 1016.7
20200407053019 58 182 6.0 15.0 0.00 0.00 0.00 34 1016.8
20200407052518 58 191 7.0 14.0 0.00 0.00 0.00 34 1016.7
20200407052003 58 206 7.0 17.0 0.00 0.00 0.00 34 1016.7
20200407051519 58 207 7.0 17.0 0.00 0.00 0.00 34 1016.8
20200407051010 58 215 6.0 13.0 0.00 0.00 0.00 34 1016.7
20200407050455 58 212 6.0 13.0 0.00 0.00 0.00 34 1016.6
20200407050016 58 191 5.0 10.0 0.00 0.00 0.00 34 1016.6
20200407045513 58 210 6.0 10.0 0.00 0.00 0.00 33 1016.8
20200407045020 58 224 4.0 10.0 0.00 0.00 0.00 33 1016.7
20200407044459 59 205 4.0 10.0 0.00 0.00 0.00 32 1016.7
20200407043944 59 164 4.0 10.0 0.00 0.00 0.00 32 1016.8
20200407043444 59 184 0.0 10.0 0.00 0.00 0.00 32 1016.7
20200407043143 59 191 2.0 10.0 0.00 0.00 0.00 31 1011.0
20200407042950 60 217 2.0 10.0 0.00 0.00 0.00 31 1016.7
20200407042453 60 206 4.0 10.0 0.00 0.00 0.00 31 1016.6
20200407041958 60 210 5.0 10.0 0.00 0.00 0.00 31 1016.5
20200407041446 60 216 3.0 12.0 0.00 0.00 0.00 31 1016.4
20200407040951 60 233 6.0 12.0 0.00 0.00 0.00 30 1016.3
20200407040458 60 221 4.0 9.0 0.00 0.00 0.00 30 1016.3
20200407035946 60 212 0.0 8.0 0.00 0.00 0.00 30 1016.3
20200407035449 60 178 2.0 8.0 0.00 0.00 0.00 30 1016.3
20200407034953 61 213 3.0 7.0 0.00 0.00 0.00 29 1016.3
20200407034500 61 204 0.0 9.0 0.00 0.00 0.00 28 1016.2
20200407033944 62 223 6.0 12.0 0.00 0.00 0.00 28 1016.0
20200407033501 62 215 7.0 12.0 0.00 0.00 0.00 28 1016.0
20200407032948 62 222 5.0 12.0 0.00 0.00 0.00 28 1016.0
20200407032451 62 212 6.0 11.0 0.00 0.00 0.00 28 1015.9
20200407031952 62 226 3.0 11.0 0.00 0.00 0.00 27 1015.8
20200407031458 62 221 5.0 9.0 0.00 0.00 0.00 27 1015.8
20200407030943 62 229 3.0 8.0 0.00 0.00 0.00 27 1015.7
20200407030447 62 219 4.0 7.0 0.00 0.00 0.00 27 1015.6
20200407025951 62 225 3.0 9.0 0.00 0.00 0.00 27 1015.6
20200407025458 63 198 5.0 10.0 0.00 0.00 0.00 27 1015.5
20200407024943 63 227 7.0 11.0 0.00 0.00 0.00 27 1015.4
20200407024447 63 236 6.0 10.0 0.00 0.00 0.00 27 1015.3
20200407023953 63 222 6.0 10.0 0.00 0.00 0.00 27 1015.2
20200407023458 63 245 5.0 10.0 0.00 0.00 0.00 27 1015.2
20200407023003 63 227 5.0 8.0 0.00 0.00 0.00 27 1015.1
20200407022445 63 225 2.0 7.0 0.00 0.00 0.00 27 1015.0
20200407021953 63 233 3.0 8.0 0.00 0.00 0.00 27 1015.0
20200407021458 64 237 4.0 10.0 0.00 0.00 0.00 27 1014.9
20200407020959 64 235 5.0 10.0 0.00 0.00 0.00 26 1014.7
20200407020506 64 236 3.0 8.0 0.00 0.00 0.00 26 1014.6
20200407020012 65 249 2.0 9.0 0.00 0.00 0.00 26 1014.6
20200407015518 65 216 0.0 8.0 0.00 0.00 0.00 26 1014.6
20200407015014 65 233 3.0 8.0 0.00 0.00 0.00 26 1014.4
20200407014512 66 256 2.0 8.0 0.00 0.00 0.00 26 1014.4
20200407014015 66 241 2.0 8.0 0.00 0.00 0.00 25 1014.4
20200407013512 66 221 4.0 9.0 0.00 0.00 0.00 25 1014.3
20200407013010 67 252 5.0 10.0 0.00 0.00 0.00 25 1014.3
20200407012517 67 253 6.0 11.0 0.00 0.00 0.00 25 1014.1
20200407012019 67 250 5.0 11.0 0.00 0.00 0.00 25 1014.0
20200407011519 67 221 8.0 11.0 0.00 0.00 0.00 25 1014.0
20200407011016 68 254 5.0 11.0 0.00 0.00 0.00 25 1013.9
20200407010509 68 244 4.0 11.0 0.00 0.00 0.00 25 1013.8
20200407010028 68 235 6.0 12.0 0.00 0.00 0.00 24 1013.8
20200407005531 69 237 6.0 11.0 0.00 0.00 0.00 24 1013.8
20200407005018 69 220 4.0 11.0 0.00 0.00 0.00 24 1013.7
20200407004516 69 255 4.0 12.0 0.00 0.00 0.00 24 1013.6
20200407004015 69 241 8.0 12.0 0.00 0.00 0.00 24 1013.5
20200407003524 70 243 5.0 11.0 0.00 0.00 0.00 24 1013.3
20200407003008 70 272 6.0 14.0 0.00 0.00 0.00 23 1013.3
20200407002455 70 221 6.0 14.0 0.00 0.00 0.00 23 1013.4
20200407001956 70 248 8.0 12.0 0.00 0.00 0.00 23 1013.3
20200407001525 70 209 7.0 12.0 0.00 0.00 0.00 22 1013.3
20200407001021 70 264 5.0 13.0 0.00 0.00 0.00 22 1013.3
20200407000523 71 239 7.0 10.0 0.00 0.00 0.00 22 1013.3
20200406235949 71 235 1.0 14.0 0.00 0.00 0.00 22 1013.2
20200406235451 71 210 7.0 14.0 0.00 0.00 0.00 21 1013.2
20200406235026 71 236 7.0 14.0 0.00 0.00 0.00 20 1013.2
20200406234512 71 282 1.0 12.0 0.00 0.00 0.00 20 1013.2
20200406234010 71 225 6.0 12.0 0.00 0.00 0.00 20 1013.2
20200406233523 72 237 5.0 14.0 0.00 0.00 0.00 20 1013.2
20200406233028 72 233 9.0 14.0 0.00 0.00 0.00 19 1013.2
20200406232501 73 227 9.0 14.0 0.00 0.00 0.00 19 1013.3
20200406231949 73 217 4.0 12.0 0.00 0.00 0.00 18 1013.2
20200406231633 73 235 8.0 16.0 0.00 0.00 0.00 18 1007.2
20200406231454 74 229 7.0 16.0 0.00 0.00 0.00 18 1013.2
20200406230957 74 232 7.0 13.0 0.00 0.00 0.00 18 1013.1
20200406230504 74 260 3.0 9.0 0.00 0.00 0.00 18 1013.2
20200406230127 74 213 4.0 9.0 0.00 0.00 0.00 17 1007.2
20200406225943 75 220 6.0 11.0 0.00 0.00 0.00 18 1013.2